This demonstration page uses our WeatherBlox Daily Observations layout. Learn more.

Left ArrowRight Arrow

38.20091, -84.87328

Hourly Observations for July 21, 2022

Temp ( °F °C ) Dew Point ( °F °C ) Humidity (%) Winds ( mph kmh ) Pressure ( in mb ) Visibility ( mi km ) Precip ( " mm )
12:53 am 00:53 Mostly Clear 80 26.7 73 22.8 79 79 SW 8 13 29.71 1006 10 16 0.00 0.00
1:53 am 01:53 Clear 78 25.6 72 22.2 82 82 WSW 9 15 29.72 1007 10 16 0.00 0.00
2:53 am 02:53 Mostly Clear 76 24.4 71 21.7 85 85 SW 5 7 29.75 1008 10 16 0.00 0.00
3:53 am 03:53 Mostly Clear 76 24.4 70 21.1 82 82 SW 3 6 29.76 1008 10 16 0.00 0.00
4:53 am 04:53 Mostly Clear 75 23.9 70 21.1 84 84 Calm 29.77 1008 10 16 0.00 0.00
5:53 am 05:53 Clear 74 23.3 70 21.1 88 88 Calm 29.78 1008 10 16 0.00 0.00
6:53 am 06:53 Sunny 72 22.2 69 20.6 91 91 SW 3 6 29.80 1009 10 16 0.00 0.00
7:53 am 07:53 Partly Cloudy 74 23.3 71 21.7 91 91 Calm 29.82 1010 10 16 0.00 0.00
8:53 am 08:53 Mostly Sunny 78 25.6 70 21.1 76 76 VRB 5 7 29.83 1010 10 16 0.00 0.00
9:53 am 09:53 Sunny 81 27.2 69 20.6 67 67 VRB 3 6 29.84 1010 10 16 0.00 0.00
10:53 am 10:53 Sunny 83 28.3 67 19.4 59 59 WNW 7 11 29.84 1010 10 16 0.00 0.00
11:53 am 11:53 Mostly Cloudy 85 29.4 70 21.1 61 61 VRB 7 11 29.85 1011 10 16 0.00 0.00
12:53 pm 12:53 Mostly Cloudy 85 29.4 68 20 57 57 WNW 7 11 29.85 1011 10 16 0.00 0.00
1:53 pm 13:53 Partly Cloudy 88 31.1 68 20 52 52 W 8 13 29.86 1011 10 16 0.00 0.00
2:53 pm 14:53 Sunny 88 31.1 66 18.9 48 48 W 7 11 29.85 1011 10 16 0.00 0.00
3:53 pm 15:53 Sunny 88 31.1 66 18.9 48 48 WNW 9 15 29.85 1011 10 16 0.00 0.00
4:53 pm 16:53 Sunny 89 31.7 67 19.4 48 48 VRB 7 11 29.86 1011 10 16 0.00 0.00
5:53 pm 17:53 Sunny 88 31.1 66 18.9 48 48 NW 10 17 29.85 1011 10 16 0.00 0.00
6:53 pm 18:53 Sunny 88 31.1 65 18.3 46 46 NW 5 7 29.85 1011 10 16 0.00 0.00
7:53 pm 19:53 Sunny 86 30 67 19.4 53 53 NW 3 6 29.86 1011 10 16 0.00 0.00
8:53 pm 20:53 Sunny 79 26.1 69 20.6 72 72 Calm 29.87 1012 10 16 0.00 0.00
9:53 pm 21:53 Clear 74 23.3 68 20 82 82 Calm 29.88 1012 10 16 0.00 0.00
10:53 pm 22:53 Clear 74 23.3 69 20.6 85 85 SW 6 9 29.91 1013 10 16 0.00 0.00
11:53 pm 23:53 Clear 72 22.2 68 20 87 87 WSW 5 7 29.91 1013 10 16 0.00 0.00

Powered by AerisWeather